DateTimeUTC,F1_A11,F1_S11,BsB_S11,BsG_S11,BsR_S11,BbsB_S11,BbsG_S11,BbsR_S11,BaB_A11,BaG_A11,BaR_A11,Tu_S11,T_S11,Uu_S11,U_S11,P_S11,T1_A11
2021-01-24T20:00:00Z,00000200,21000000,,,,,,,-000.34,-000.05,0000.16,15.5,22.8,,00.0,0648.2,30.9
2021-01-24T20:01:00Z,00000200,21000000,,,,,,,-000.01,-000.02,0000.08,15.5,22.8,,00.0,0648.2,30.9
2021-01-24T20:02:00Z,00000200,21000000,,,,,,,0000.03,-000.23,0000.01,15.5,22.8,,00.0,0648.2,30.9
2021-01-24T20:03:00Z,00000200,61000000,,,,,,,0000.73,0000.08,0000.10,15.5,22.8,,00.0,0648.2,30.9
2021-01-24T20:04:00Z,00000200,41000000,-000.28,0000.04,-000.05,-000.59,0000.31,0000.02,-000.20,0000.54,0000.35,15.9,22.7,,00.0,0649.1,30.9
2021-01-24T20:05:00Z,00000200,01000000,0000.81,0000.39,-000.29,-000.19,0000.17,-000.10,0000.29,0000.08,-000.33,16.0,22.6,,00.0,0649.2,30.9
2021-01-24T20:06:00Z,00000200,01000000,0000.38,0000.43,-000.06,-000.73,-000.10,0000.15,0000.88,0001.15,0001.36,15.9,22.6,,00.0,0649.2,30.9
2021-01-24T20:07:00Z,00000200,01000000,0000.91,0000.17,0000.35,0000.05,0000.35,-000.03,0005.90,0005.16,0003.73,15.9,22.6,,00.0,0649.2,30.9
2021-01-24T20:08:00Z,00000200,01000000,0000.60,0000.48,0000.16,0000.38,0000.32,0000.00,0009.01,0008.19,0006.08,15.9,22.6,,00.0,0649.3,30.9
2021-01-24T20:09:00Z,00000200,01000000,0000.92,0000.48,0000.19,0000.24,0000.06,0000.11,0013.44,0012.32,0009.62,15.8,22.6,,00.0,0649.3,30.9
2021-01-24T20:10:00Z,00000200,01000000,0000.79,0000.73,0000.04,-000.03,0000.22,0000.09,0012.66,0011.33,0009.05,15.8,22.5,,00.0,0649.3,30.9
2021-01-24T20:11:00Z,00000200,01000000,0001.51,0000.60,-000.07,-000.00,0000.57,-000.22,0010.51,0009.27,0007.53,15.7,22.5,,00.0,0649.3,30.9
2021-01-24T20:12:00Z,00000200,01000000,0000.89,0000.52,-000.20,0000.07,0000.36,-000.05,0009.06,0008.24,0006.13,15.7,22.5,,00.0,0649.3,30.9
2021-01-24T20:13:00Z,00000200,01000000,0000.56,0000.56,0000.19,0000.32,0000.32,0000.15,0006.98,0006.43,0005.13,15.7,22.5,,00.0,0649.4,30.9
2021-01-24T20:14:00Z,00000200,01000000,0000.46,0000.53,0000.12,0000.61,0000.20,-000.15,0005.81,0004.97,0003.89,15.8,22.5,,00.0,0649.4,30.9
2021-01-24T20:15:00Z,00000200,01000000,0000.28,0000.54,0000.16,0000.09,0000.34,0000.02,0004.16,0003.94,0002.55,15.8,22.5,,00.0,0649.4,30.9
2021-01-24T20:16:00Z,00000200,01000000,0000.87,0000.47,0000.37,-000.29,0000.10,-000.21,0005.26,0004.93,0004.03,15.9,22.5,,00.0,0649.4,30.9
2021-01-24T20:17:00Z,00000200,01000000,0000.81,0000.63,0000.32,0000.07,-000.12,0000.03,0008.30,0008.03,0005.83,15.9,22.5,,00.0,0649.4,30.9
2021-01-24T20:18:00Z,00000200,01000000,0000.55,0000.47,0000.42,-000.07,0000.15,-000.08,0008.71,0007.48,0006.20,16.0,22.5,,00.0,0649.4,30.9
2021-01-24T20:19:00Z,00000200,01000000,0000.64,0000.57,-000.01,0000.14,0000.13,-000.17,0004.04,0004.04,0003.30,16.0,22.6,,00.0,0649.4,30.9
2021-01-24T20:20:00Z,00000200,01000000,-000.15,0000.68,0000.04,0000.03,0000.18,-000.14,0003.90,0003.21,0002.46,16.1,22.6,,00.0,0649.4,30.9
2021-01-24T20:21:00Z,00000200,01000000,0001.12,0000.64,0000.09,-000.47,0000.16,-000.24,0004.11,0003.51,0002.42,16.0,22.6,,00.0,0649.4,30.9
2021-01-24T20:22:00Z,00000200,01000000,0000.99,0000.63,0000.30,0000.25,-000.05,0000.06,0006.68,0006.35,0005.17,16.0,22.6,,00.0,0649.3,30.9
2021-01-24T20:23:00Z,00000200,01000000,0000.91,0000.99,0000.11,0000.19,0000.20,0000.08,0009.23,0008.66,0006.24,15.9,22.5,,00.0,0649.3,30.9
2021-01-24T20:24:00Z,00000200,01000000,0001.50,0000.90,0000.37,-000.44,0000.06,-000.08,0011.36,0010.31,0007.96,15.9,22.5,,00.0,0649.3,30.9
2021-01-24T20:25:00Z,00000200,01000000,0001.12,0000.76,0000.11,-000.07,0000.39,-000.14,0012.60,0010.94,0008.83,15.9,22.5,,00.0,0649.4,30.9
2021-01-24T20:26:00Z,00000200,01000000,0001.27,0000.85,0000.37,0000.37,0000.25,0000.36,0015.96,0014.52,0011.40,15.8,22.5,,00.0,0649.4,30.9
2021-01-24T20:27:00Z,00000200,01000000,0001.12,0001.02,0000.40,0000.27,0000.32,-000.05,0014.15,0012.87,0010.11,15.8,22.4,,00.0,0649.4,30.9
2021-01-24T20:28:00Z,00000200,01000000,0001.17,0000.90,0000.64,-000.08,0000.14,0000.33,0013.45,0012.61,0009.60,15.8,22.4,,00.0,0649.4,30.9
2021-01-24T20:29:00Z,00000200,01000000,0000.64,0000.86,0000.53,0000.45,0000.38,-000.03,0015.08,0013.53,0010.36,15.8,22.4,,00.0,0649.4,30.9
2021-01-24T20:30:00Z,00000200,01000000,0000.95,0000.72,0000.38,0000.50,0000.28,-000.11,0010.96,0009.86,0007.66,15.9,22.5,,00.0,0649.4,30.9
2021-01-24T20:31:00Z,00000200,01000000,0000.83,0000.69,0000.24,0000.46,0000.05,0000.10,0010.63,0010.01,0007.80,16.0,22.5,,00.0,0649.5,30.9
2021-01-24T20:32:00Z,00000200,01000000,0000.62,0001.15,0000.45,0000.63,0000.36,-000.04,0013.45,0012.35,0009.73,16.0,22.5,,00.0,0649.5,30.9
2021-01-24T20:33:00Z,00000200,01000000,0001.28,0000.55,0000.38,0000.08,0000.22,-000.04,0010.79,0009.46,0007.17,16.1,22.6,,00.0,0649.4,30.9
2021-01-24T20:34:00Z,00000200,01000000,0001.41,0000.97,0000.57,0000.20,0000.09,0000.26,0013.09,0012.08,0009.43,16.1,22.6,,00.0,0649.4,30.9
2021-01-24T20:35:00Z,00000200,01000000,0000.79,0000.64,0000.17,0000.26,0000.28,0000.08,0011.60,0010.71,0008.04,16.0,22.6,,00.0,0649.4,30.9
2021-01-24T20:36:00Z,00000200,01000000,0001.09,0000.46,0000.26,0000.01,0000.01,-000.06,0008.77,0007.77,0006.29,16.0,22.5,,00.0,0649.4,30.9
2021-01-24T20:37:00Z,00000200,01000000,0001.34,0000.82,0000.35,-000.40,0000.23,0000.02,0010.57,0009.94,0007.47,15.9,22.5,,00.0,0649.4,30.9
2021-01-24T20:38:00Z,00000200,01000000,0000.91,0000.99,0000.25,0000.48,0000.19,0000.01,0012.99,0011.55,0009.24,15.9,22.5,,00.0,0649.4,30.9
2021-01-24T20:39:00Z,00000200,01000000,0000.86,0000.58,0000.29,0000.47,0000.33,0000.05,0010.51,0009.38,0007.44,15.9,22.5,,00.0,0649.4,30.9
2021-01-24T20:40:00Z,00000200,01000000,0000.73,0000.81,0000.18,0000.57,0000.39,-000.09,0013.92,0012.82,0009.75,15.8,22.5,,00.0,0649.4,30.9
2021-01-24T20:41:00Z,00000200,01000000,0001.49,0000.71,0000.52,0000.01,0000.20,0000.14,0012.08,0010.83,0008.81,15.8,22.4,,00.0,0649.3,30.9
2021-01-24T20:42:00Z,00000200,01000000,0001.56,0000.94,0000.19,-000.07,0000.24,0000.13,0010.81,0009.74,0007.41,15.8,22.4,,00.0,0649.3,30.8
2021-01-24T20:43:00Z,00000200,01000000,0000.82,0000.93,0000.40,0000.34,0000.39,0000.12,0012.78,0011.64,0008.93,15.8,22.4,,00.0,0649.4,30.8
2021-01-24T20:44:00Z,00000200,01000000,0000.85,0000.90,0000.49,0000.02,0000.54,0000.02,0013.37,0012.16,0009.33,15.8,22.4,,00.0,0649.4,30.9
2021-01-24T20:45:00Z,00000200,01000000,0000.66,0000.55,0000.50,0000.08,0000.19,-000.18,0010.89,0010.16,0007.98,15.8,22.4,,00.0,0649.4,30.9
2021-01-24T20:46:00Z,00000200,01000000,0001.48,0000.94,0000.33,0000.50,0000.32,0000.07,0012.73,0011.44,0008.75,15.9,22.5,,00.0,0649.4,30.9
2021-01-24T20:47:00Z,00000200,01000000,0000.82,0000.82,0000.59,0000.19,0000.46,-000.00,0013.00,0012.13,0009.57,16.0,22.5,,00.0,0649.4,30.9
2021-01-24T20:48:00Z,00000200,01000000,0001.23,0000.94,0000.48,0000.07,0000.29,0000.08,0012.26,0011.11,0008.68,16.0,22.5,,00.0,0649.5,30.9
2021-01-24T20:49:00Z,00000200,01000000,0001.37,0000.96,0000.47,-000.19,0000.27,0000.06,0013.15,0011.70,0008.94,16.1,22.5,,00.0,0649.4,30.9
2021-01-24T20:50:00Z,00000200,01000000,0001.29,0000.65,0000.50,0000.07,0000.19,0000.03,0012.62,0011.64,0008.88,16.1,22.5,,00.0,0649.4,30.9
2021-01-24T20:51:00Z,00000200,01000000,0001.54,0000.91,0000.27,0000.15,0000.12,-000.16,0012.30,0011.38,0008.60,16.1,22.5,,00.0,0649.4,30.9
2021-01-24T20:52:00Z,00000200,01000000,0001.90,0000.83,0000.32,0000.39,0000.41,0000.04,0012.99,0011.63,0009.34,16.0,22.5,,00.0,0649.4,30.9
2021-01-24T20:53:00Z,00000200,01000000,0000.97,0000.75,0000.10,-000.22,0000.28,-000.20,0011.86,0010.77,0007.92,16.0,22.5,,00.0,0649.4,30.9
2021-01-24T20:54:00Z,00000200,01000000,0001.08,0000.93,0000.24,-000.18,0000.13,0000.15,0010.62,0009.42,0007.82,15.9,22.5,,00.0,0649.4,30.9
2021-01-24T20:55:00Z,00000200,01000000,0000.99,0000.93,0000.53,0000.23,0000.23,-000.01,0011.38,0010.72,0008.22,15.9,22.5,,00.0,0649.4,30.9
2021-01-24T20:56:00Z,00000200,01000000,0001.04,0000.79,0000.33,-000.04,0000.42,0000.17,0008.55,0007.46,0006.06,15.9,22.5,,00.0,0649.4,30.9
2021-01-24T20:57:00Z,00000200,41000000,,,,,,,0004.81,0004.25,0002.77,15.9,22.5,,00.0,0649.4,30.9
2021-01-24T20:58:00Z,00000200,61000000,,,,,,,0000.29,0000.04,0000.34,15.5,22.6,,00.0,0648.4,30.9
2021-01-24T20:59:00Z,00000200,21000000,,,,,,,-000.39,0000.07,0000.04,15.5,22.7,,00.0,0648.4,30.9
